Regional Weather Roundup
Issued by NWS Newport/Morehead, NC

Current Version | Previous Version | Text Only | Print | Product List | Glossary Off
Versions: 1 2 3 4 5 6 7 8 9 10 11 12 13 14 15 16 17 18 19 20 21 22 23 24 25 26 27 28 29 30 31 32 33 34 35 36 37 38 39 40 41 42 43 44 45 46 47 48 49 50
000 ASUS42 KMHX 282226 RWRMHX WEATHER ROUNDUP FOR EASTERN NORTH CAROLINA NATIONAL WEATHER SERVICE NEWPORT/MOREHEAD CITY NC 600 PM EDT WED JUN 28 2017 NOTE: "FAIR" INDICATES FEW OR NO CLOUDS BELOW 12,000 FEET WITH NO SIGNIFICANT WEATHER AND/OR OBSTRUCTIONS TO VISIBILITY NCZ015>017-031-032-045>047-102-103-282300- NORTH COAST CITY SKY/WX TMP DP RH WIND PRES REMARKS EDENTON SUNNY 79 62 55 E9 30.17S ELIZABETH CITY SUNNY 77 59 53 E12 30.18S KITTY HAWK CLEAR 74 58 56 E7 30.18S MANTEO SUNNY 74 60 60 E12 30.19S $$ NCZ045>047-081-094-103-104-282300- CENTRAL COAST CITY SKY/WX TMP DP RH WIND PRES REMARKS FRISCO NOT AVBL $$ NCZ095-097-098-100-101-282300- SOUTHERN COAST CITY SKY/WX TMP DP RH WIND PRES REMARKS BEAUFORT MOSUNNY 81 60 48 E10G18 30.16S CEDAR ISLAND NOT AVBL JACKSONVILLE MOSUNNY 82 60 47 S12 30.15S PINEY ISLAND CLEAR N/A N/A N/A E9 30.16F WILMINGTON SUNNY 82 54 37 E9 30.16R $$ NCZ011>013-027>030-043-044-078>080-089-090>093-098-282300- COASTAL PLAIN CITY SKY/WX TMP DP RH WIND PRES REMARKS AHOSKIE N/A 79 53 41 CALM 30.17S CLINTON SUNNY 83 53 34 CALM 30.16S ELIZABETHTOWN NOT AVBL GOLDSBORO SUNNY 84 51 32 E7 30.14F GREENVILLE SUNNY 82 52 34 CALM 30.17S HAVELOCK MOSUNNY 82 58 43 E8 30.17S KENANSVILLE SUNNY 82 54 36 SE5 30.16S KINSTON SUNNY 82 50 32 CALM 30.16F NEW BERN SUNNY 82 60 47 S8 30.17S RICHLANDS SUNNY 83 53 35 N5 30.16F ROCKY MOUNT SUNNY 82 51 34 NE5 30.16F WASHINGTON SUNNY N/A N/A N/A N5 30.16S WHITEVILLE SUNNY 85 53 32 NE3 30.14S $$ AMZ130-135-150-152-154-156-158-170-250-252-270-ANZ085-086-088-633-658-670-282300- MARINE OBSERVATIONS STATION/POSITION TIME TEMP WIND PRES WAVE SWELL AIR SEA DIR/SP/G HT/PER HT/PER (UTC) (F) (DEG/KT/KT) (MB) (FT/S) (FT/S) CHESAPEAKE LIGHT NOT AVBL 64 E VA BEACH 2150 71 74 30/ 8/ 10 1023.4 2/ 5 2/ 5 DUCK 2200 74 75 80/ 10/ 12 1022.0 2 E DUCK NOT AVBL OREGON INLET 2200 73 76 40/ 10/ 13 1022.1 13E OREGON INLT 2148 74 N/A 3/ 5 2/ 6 HATTERAS CG 2200 78 78 60/ 7/ 10 1021.9 DIAMOND BUOY 2150 78 83 40/ 8/ 12 1021.8 2/ 7 2/ 7 CAPE LOOKOUT 2200 78 80/ 12/ 13 1021.2 BEAUFORT LAB 2200 80 80 100/ 11/ 15 1020.8 30 SE NEW RVR IN 2108 79 81 100/ 8/ 10 1021.7 30 SE NEW RVR IN 2143 81 N/A 2/ 7 27 SE WRIGHTSVLE 2108 80 81 90/ 6/ 10 1021.5 5 SE WRIGHTSVLE 2108 80 80 110/ 8/ 12 1021.3 225 S CAPE HAT 2150 80 81 60/ 16/ 17 1019.3 3/ 8 2/ 8 41 SE CHARLESTON 2210 80 80 60/ 16/ 19 1019.9 $$

USA.gov is the U.S. government's official web portal to all federal, state and local government web resources and services.